Regional Weather Roundup
Issued by NWS Columbia, SC

Home | Current Version | Previous Version | Text Only | Print | Product List | Glossary On
Versions: 1 2 3 4 5 6 7 8 9 10 11 12 13 14 15 16 17 18 19 20 21 22 23 24 25 26 27 28 29 30 31 32 33 34 35 36 37 38 39 40 41 42 43 44 45 46 47 48 49 50
000
ASUS42 KCAE 211010
RWRCAE
REGIONAL WEATHER ROUNDUP
NATIONAL WEATHER SERVICE COLUMBIA SC
600 AM EDT THU AUG 21 2014

NOTE: "FAIR" INDICATES FEW OR NO CLOUDS BELOW 12,000 FEET WITH NO
SIGNIFICANT WEATHER AND/OR OBSTRUCTIONS TO VISIBILITY.

NOT ALL STATIONS ARE QUALITY CONTROLLED BY THE NATIONAL
WEATHER SERVICE. USE DATA WITH CAUTION...ESPECIALLY
DEWPOINT OBSERVATIONS.

SCZ001>056-GAZ040-063>065-077-211100-
...UPSTATE SOUTH CAROLINA...

CITY           SKY/WX    TMP DP  RH WIND       PRES   REMARKS
ANDERSON       CLEAR     67  65  93 CALM      30.06R
LIBERTY        FAIR      64  32  30 CALM      30.06R
SPARTANBURG    FAIR      70  70 100 CALM      30.07R
CLEMSON        CLEAR     72  63  73 CALM      30.07R
GREENVILLE     PTCLDY    72  64  76 CALM      30.08R
GREENWOOD      CLEAR     68  65  90 CALM      30.07R
GREER          PTCLDY    69  65  86 CALM      30.06R
ROCK HILL      CLEAR     68  67  96 CALM      30.06R
CHESTER        FAIR      75  68  78 NW6       30.06R
LAURENS        FAIR      68 N/A N/A CALM      30.07R


...CENTRAL SOUTH CAROLINA...

CITY           SKY/WX    TMP DP  RH WIND       PRES   REMARKS
COLUMBIA APT   CLEAR     76  68  76 W5        30.03R
COLUMBIA OWENS CLEAR     79  67  66 VRB3      30.04R
DARLINGTON     CLEAR     73  70  88 NW3       30.03R
FLORENCE       CLEAR     74  71  91 CALM      30.00R
MCENTIRE ANGB  PTCLDY    73  72  98 NW6       30.03R
ORANGEBURG     PTCLDY    72  69  90 SW3       30.03R
SUMTER SHAW    MOCLDY    76  72  88 NW6       30.01R
NEWBERRY       FAIR      70  68  94 CALM      30.08R
AIKEN          FAIR      72  72 100 CALM      30.08S
BARNWELL       FAIR      72  70  94 NW5       30.05R
MANNING        FAIR      73 N/A N/A CALM      30.01R
CAMDEN         FAIR      73  72  94 NW3       30.04R
LANCASTER      FAIR      72  72 100 CALM      30.05R
WINNSBORO      FAIR      72  68  88 NW5       30.04R


...EASTERN AND COASTAL SOUTH CAROLINA...

CITY           SKY/WX    TMP DP  RH WIND       PRES   REMARKS
MYRTLE BEACH   CLEAR     79  73  83 NW3       30.00R
N MYRTLE BCH   FOG       75  74  96 CALM      30.00R VSB 1/2
CONWAY         FAIR      73  73 100 CALM      30.00R FOG
MARION         FAIR      73  73 100 CALM      30.00R FOG
HARTSVILLE     FAIR      77  75  94 CALM      30.03R
FLORENCE       CLEAR     74  71  91 CALM      30.00R
DARLINGTON     CLEAR     73  70  88 NW3       30.03R
CHARLESTON APT PTCLDY    77  71  82 W5        30.01S
MOUNT PLEASANT FAIR      77  73  88 CALM      30.01R
WALTERBORO     PTSUNNY   73 N/A N/A CALM      30.02S
BEAUFORT       PTCLDY    75  71  87 W3        30.02S


...EASTERN GEORGIA...

CITY           SKY/WX    TMP DP  RH WIND       PRES   REMARKS
AUGUSTA BUSH F PTCLDY    73  68  84 N3        30.05R
AUGUSTA DANIEL PTCLDY    75  68  78 NW8       30.06R
THOMSON        CLEAR     71  71 100 CALM      30.11R
WASHINGTON     FAIR      72  72 100 W3        30.07R
CLAXTON        FAIR      72  72 100 CALM      30.05R
SYLVANIA       SUNNY     72  71  98 CALM      30.04S
STATESBORO     CLEAR     70  70 100 CALM      30.04S
SAVANNAH       PTCLDY    74  69  85 CALM      30.04R


...SOUTHERN NORTH CAROLINA...

CITY           SKY/WX    TMP DP  RH WIND       PRES   REMARKS
CHARLOTTE      MOCLDY    69  66  90 N3        30.06R
MONROE         PTCLDY    73  69  87 NW3       30.05R
WADESBORO      SUNNY     71  69  95 CALM      30.03R FOG
ROCKINGHAM     SUNNY     73  71  96 CALM      30.02R FOG
RUTHERFORDTON  PTCLDY    68  62  82 CALM      30.09R
ASHEVILLE      PTCLDY    65  62  90 CALM      30.16R

$$


USA.gov is the U.S. government's official web portal to all federal, state and local government web resources and services.